Simultaneous Nadir Overpasses (SNOs) Predictions

Prediction of SNOs between METOP-B and TERRA Satellite Orbit:

Table of predicted SNOs for the next 14.0 days since TLE Epoch: 9/8/2017
Index Date (METOP-B) Time (METOP-B) Lat,Lon (METOP-B) SZA (METOP-B ) Date (TERRA) Time (TERRA) Lat,Lon (TERRA) SZA (TERRA ) Distance(km) Time Diff (sec)
1 09/10/2017 16:22:03 -81.35, 162.31 100.40 09/10/2017 16:22:12 -81.34, 162.37 100.39 0.94 9
2 09/10/2017 17:12:42 81.35, -29.83 79.69 09/10/2017 17:11:38 81.35, -29.90 79.64 1.30 64
3 09/13/2017 11:56:22 -81.34,-131.42 99.32 09/13/2017 11:56:26 -81.34,-131.26 99.30 2.76 4
4 09/13/2017 12:47:01 81.35, 36.42 80.76 09/13/2017 12:45:52 81.34, 36.46 80.73 0.95 69
5 09/16/2017 06:40:00 81.35, 127.78 81.79 09/16/2017 06:41:13 81.35, 127.81 81.83 1.01 73
6 09/16/2017 07:30:40 -81.35, -64.40 98.14 09/16/2017 07:30:40 -81.35, -64.58 98.16 3.13 0
7 09/16/2017 08:21:16 81.37, 104.62 82.08 09/16/2017 08:20:02 81.43, 104.66 82.09 7.31 74
8 09/19/2017 02:14:20 81.34,-166.03 82.87 09/19/2017 02:15:28 81.34,-166.00 82.91 0.53 68
9 09/19/2017 03:05:00 -81.35, 1.81 97.06 09/19/2017 03:04:55 -81.34, 1.62 97.09 3.24 5
10 09/21/2017 21:48:38 81.34, -99.47 84.00 09/21/2017 21:49:41 81.34, -99.51 84.03 0.75 63




NCC Satellite Simultaneous Nadir Overpasses (SNOs) Prediction Service
